User: anonymous   Login
Location: Unspecified
(0.0000°N, 0.0000°E)
Time: 02:58:23
(UTC+00:00)
Language:

TABLETSAT AURORA - Orbit

View from above orbital plane
View from above orbital plane
View from above satellite
View from above satellite

Ground track
Ground track

The orbit data is extracted from the following two-line orbital elements,

1 40017U 14033H   23088.52295112  .00007744  00000-0  66874-3 0  9997
2 40017  98.1450  86.2454 0021268 187.1499 172.9390 14.97368205478182
Epoch (UTC): 29 March 2023 12:33:02
Eccentricity: 0.0021268
inclination: 98.1450°
perigee height: 560 km
apogee height: 590 km
right ascension of ascending node: 86.2454°
argument of perigee: 187.1499°
revolutions per day: 14.97368205
mean anomaly at epoch: 172.9390°
orbit number at epoch: 47818

The dashed part of the orbit path shows where the satellite is in the earth's shadow,  

DLR